Regional Weather Roundup
Issued by NWS

Home | Current Version | Previous Version | Text Only | Print | Product List | Glossary Off
Versions: 1 2 3 4 5 6 7 8 9 10 11 12 13 14 15 16 17 18 19 20 21 22 23 24 25 26 27 28 29 30 31 32 33 34 35 36 37 38 39 40 41 42 43 44 45 46 47 48 49 50

000
ASUS43 KIND 061509
RWRIN

WEATHER ROUNDUP FOR INDIANA
NATIONAL WEATHER SERVICE INDIANAPOLIS IN
1100 AM EDT MON JUL 06 2015

NOTE: "FAIR" INDICATES FEW OR NO CLOUDS BELOW 12,000 FEET WITH NO
SIGNIFICANT WEATHER AND/OR OBSTRUCTIONS TO VISIBILITY.

* - STATION DOES NOT REPORT WEATHER SUCH AS PRECIPITATION OR FOG.

+ - STATION NOT QUALITY CONTROLLED BY THE NATIONAL WEATHER SERVICE.
    USE DATA WITH CAUTION...ESPECIALLY DEWPOINT AND RELATIVE
    HUMIDITY OBSERVATIONS.

INZ001>003-010>013-019-020-061600-
NORTHWEST INDIANA

CITY           SKY/WX    TMP DP  RH WIND       PRES   REMARKS
GARY /AIRPORT/ SUNNY    N/A N/A N/A S8        30.01S
KNOX *+        SUNNY     77  66  69 S12       30.01F
LA PORTE +     SUNNY     78  69  73 SW12      30.03S
MICHIGAN CITY+ MOSUNNY   77  64  65 S10G20    30.02S
MONTICELLO +   SUNNY     76  70  82 S10       30.03F
RENSSELAER +   SUNNY     77  72  83 S8        30.03S
VALPARAISO     SUNNY     78  67  68 SW13      30.03S

$$

LMZ046-743>745-061600-
SOUTHERN LAKE MICHIGAN

STATION/POSITION TIME  TEMP    WIND        PRES    WAVE
                       AIR SEA DIR/SP/G            HT
                 (UTC) (F)     (DEG/KT/KT) (MB)    (FT)
BURNS HARBOR     1500   76     200/ 13/ 18 1016.3F
MICHIGAN CITY    1500   74     170/ 12/ 16   N/A
5NW MICH CITY    1500   71 66  210/  8/ 10   N/A     1

$$

INZ004-005-014>016-021>024-061600-
NORTH CENTRAL INDIANA

CITY           SKY/WX    TMP DP  RH WIND       PRES   REMARKS
GOSHEN         SUNNY     76  68  76 S10       30.04F
LOGANSPORT +   SUNNY     77  64  65 S10       30.05F
PERU/GRISSOM   SUNNY     77  69  76 SW10      30.03F
ROCHESTER +    SUNNY     79  72  78 S7        30.05F
SOUTH BEND     SUNNY     78  68  71 SW10      30.02F
WARSAW +         N/A     77  68  73 SW7       30.05F

$$

INZ006>009-017-018-025>027-061600-
NORTHEAST INDIANA

CITY           SKY/WX    TMP DP  RH WIND       PRES   REMARKS
ANGOLA *+        N/A     79  72  78 SW6       30.06F
AUBURN +       SUNNY     77  64  65 SW5       30.08S
FORT WAYNE     SUNNY     77  66  68 SW8       30.07F
HUNTINGTON +   SUNNY     76  67  73 SW8       30.07S

$$

INZ028-029-035-036-043>045-051>053-061600-
WEST CENTRAL INDIANA

CITY           SKY/WX    TMP DP  RH WIND       PRES   REMARKS
CRAWFORDSVL +  SUNNY     75  64  67 S8        30.06S
GREENCASTLE +  SUNNY     77  64  65 S6        30.07F
LAFAYETTE      SUNNY     77  68  73 SW7       30.04F HAZE
TERRE HAUTE    SUNNY     78  68  71 S8        30.06F

$$

INZ030>032-037>040-046>048-054>057-064-065-061600-
CENTRAL INDIANA

CITY           SKY/WX    TMP DP  RH WIND       PRES   REMARKS
CP ATTERBURY + SUNNY     77  66  69 S6        30.09F HAZE
COLUMBUS       SUNNY     77  63  61 CALM      30.09F
FISHERS *+     SUNNY     75  70  83 SW6       30.07
FRANKFORT +    SUNNY     77  70  78 S7        30.07F
GREENWOOD *+   SUNNY     77  63  61 SW7       30.09F
INDIANAPOLIS   SUNNY     77  66  68 S8        30.06F
-EAGLE CREEK   SUNNY     77  67  71 SW8       30.07F
KOKOMO *+      SUNNY     79  68  69 SW12      30.05F
MARION +       SUNNY     75  66  73 SW8       30.08F HAZE
MT COMFORT *+  SUNNY     77  59  53 SW7       30.08F
SHELBYVILLE    SUNNY     77  66  68 S8        30.08F
ZIONSVILLE +   SUNNY     77  65  67 SW8       30.08F

$$

INZ033-034-041-042-049-050-058-059-061600-
EAST CENTRAL INDIANA

CITY           SKY/WX    TMP DP  RH WIND       PRES   REMARKS
MUNCIE         SUNNY     77  65  66 SW10      30.07F

$$

INZ060-061-067>069-081>083-085>088-061600-
SOUTHWEST INDIANA

CITY           SKY/WX    TMP DP  RH WIND       PRES   REMARKS
EVANSVILLE     SUNNY     80  72  76 SW5       30.07F
HUNTINGBURG *+ SUNNY     79  70  73 S6        30.08S
WASHINGTON +   SUNNY     79  68  68 S7        30.06F

$$

INZ062-063-066-070>080-084-089>092-061600-
SOUTH CENTRAL AND SOUTHEAST INDIANA

CITY           SKY/WX    TMP DP  RH WIND       PRES   REMARKS
BLOOMINGTON    SUNNY     78  70  76 S6        30.08F
MADISON *+     SUNNY     77  64  65 CALM      30.12F
NORTH VERNON + SUNNY     79  63  57 S3        30.10F
SEYMOUR +      SUNNY     79  68  69 S3        30.08F

$$




USA.gov is the U.S. government's official web portal to all federal, state and local government web resources and services.